| time (UTC) | temp C | wind direction | speed KPH | gust KPH | rain 1hr cm | rain 24hr cm | rain mn cm | humidity % | barometer mb |
| 20260505124553 | 12 | 180 | 4.8 | 12.9 | 0.00 | 0.00 | 0.00 | 67 | 1013.9 |
| 20260505124050 | 12 | 171 | 4.8 | 11.3 | 0.00 | 0.00 | 0.00 | 67 | 1013.9 |
| 20260505123551 | 12 | 190 | 4.8 | 12.9 | 0.00 | 0.00 | 0.00 | 67 | 1013.9 |
| 20260505123058 | 12 | 180 | 6.4 | 12.9 | 0.00 | 0.00 | 0.00 | 67 | 1014.0 |
| 20260505122549 | 11 | 211 | 4.8 | 8.0 | 0.00 | 0.00 | 0.00 | 68 | 1013.8 |
| 20260505122049 | 11 | 198 | 4.8 | 8.0 | 0.00 | 0.00 | 0.00 | 68 | 1013.7 |
| 20260505121554 | 11 | 207 | 4.8 | 11.3 | 0.00 | 0.00 | 0.00 | 68 | 1013.7 |
| 20260505121048 | 11 | 205 | 6.4 | 11.3 | 0.00 | 0.00 | 0.00 | 67 | 1013.7 |
| 20260505120549 | 11 | 211 | 4.8 | 11.3 | 0.00 | 0.00 | 0.00 | 67 | 1013.6 |
| 20260505120109 | 11 | 191 | 3.2 | 8.0 | 0.00 | 0.00 | 0.00 | 67 | 1013.5 |
| 20260505115548 | 11 | 195 | 3.2 | 9.7 | 0.00 | 0.00 | 0.00 | 67 | 1013.6 |
| 20260505115051 | 11 | 206 | 3.2 | 9.7 | 0.00 | 0.00 | 0.00 | 67 | 1013.5 |
| 20260505114600 | 11 | 192 | 4.8 | 9.7 | 0.00 | 0.00 | 0.00 | 68 | 1013.4 |
| 20260505114051 | 11 | 199 | 6.4 | 9.7 | 0.00 | 0.00 | 0.00 | 68 | 1013.4 |
| 20260505113550 | 11 | 191 | 4.8 | 9.7 | 0.00 | 0.00 | 0.00 | 68 | 1013.4 |
| 20260505113055 | 11 | 194 | 4.8 | 8.0 | 0.00 | 0.00 | 0.00 | 68 | 1013.4 |
| 20260505112547 | 11 | 205 | 4.8 | 8.0 | 0.00 | 0.00 | 0.00 | 68 | 1013.5 |
| 20260505112049 | 11 | 208 | 4.8 | 8.0 | 0.00 | 0.00 | 0.00 | 68 | 1013.3 |
| 20260505111555 | 11 | 216 | 3.2 | 6.4 | 0.00 | 0.00 | 0.00 | 68 | 1013.2 |
| 20260505111048 | 11 | 220 | 3.2 | 6.4 | 0.00 | 0.00 | 0.00 | 67 | 1013.3 |
| 20260505110548 | 11 | 222 | 4.8 | 6.4 | 0.00 | 0.00 | 0.00 | 66 | 1013.2 |
| 20260505102048 | 11 | 203 | 6.4 | 12.9 | 0.00 | 0.00 | 0.00 | 66 | 1012.8 |
| 20260505101553 | 11 | 184 | 8.0 | 12.9 | 0.00 | 0.00 | 0.00 | 66 | 1012.7 |
| 20260505101049 | 11 | 195 | 8.0 | 12.9 | 0.00 | 0.00 | 0.00 | 66 | 1012.7 |
| 20260505100550 | 11 | 196 | 6.4 | 11.3 | 0.00 | 0.00 | 0.00 | 66 | 1012.8 |
| 20260505100052 | 11 | 209 | 6.4 | 11.3 | 0.00 | 0.00 | 0.00 | 66 | 1012.8 |
| 20260505095549 | 11 | 187 | 6.4 | 9.7 | 0.00 | 0.00 | 0.00 | 66 | 1012.7 |
| 20260505095046 | 11 | 186 | 6.4 | 9.7 | 0.00 | 0.00 | 0.00 | 65 | 1012.6 |
| 20260505094554 | 11 | 177 | 6.4 | 9.7 | 0.00 | 0.00 | 0.00 | 65 | 1012.8 |
| 20260505094051 | 11 | 186 | 4.8 | 9.7 | 0.00 | 0.00 | 0.00 | 64 | 1012.8 |
| 20260505093552 | 11 | 208 | 4.8 | 9.7 | 0.00 | 0.00 | 0.00 | 64 | 1012.9 |
| 20260505093055 | 12 | 206 | 4.8 | 9.7 | 0.00 | 0.00 | 0.00 | 63 | 1012.7 |
| 20260505092549 | 12 | 205 | 6.4 | 9.7 | 0.00 | 0.00 | 0.00 | 63 | 1012.8 |
| 20260505092049 | 12 | 196 | 6.4 | 9.7 | 0.00 | 0.00 | 0.00 | 63 | 1012.7 |
| 20260505091552 | 12 | 207 | 4.8 | 9.7 | 0.00 | 0.00 | 0.00 | 62 | 1012.9 |
| 20260505091048 | 12 | 207 | 4.8 | 8.0 | 0.00 | 0.00 | 0.00 | 62 | 1012.9 |
| 20260505090546 | 12 | 207 | 4.8 | 11.3 | 0.00 | 0.00 | 0.00 | 62 | 1012.8 |
| 20260505090054 | 12 | 195 | 4.8 | 11.3 | 0.00 | 0.00 | 0.00 | 62 | 1012.8 |
| 20260505085552 | 12 | 174 | 6.4 | 11.3 | 0.00 | 0.00 | 0.00 | 62 | 1012.9 |
| 20260505085049 | 12 | 167 | 6.4 | 11.3 | 0.00 | 0.00 | 0.00 | 62 | 1012.8 |
| 20260505084555 | 12 | 172 | 6.4 | 11.3 | 0.00 | 0.00 | 0.00 | 63 | 1012.8 |
| 20260505084050 | 12 | 181 | 8.0 | 11.3 | 0.00 | 0.00 | 0.00 | 63 | 1012.8 |
| 20260505083548 | 12 | 172 | 8.0 | 12.9 | 0.00 | 0.00 | 0.00 | 62 | 1012.8 |
| 20260505083052 | 12 | 184 | 8.0 | 12.9 | 0.00 | 0.00 | 0.00 | 62 | 1012.9 |
| 20260505082548 | 12 | 176 | 8.0 | 12.9 | 0.00 | 0.00 | 0.00 | 63 | 1012.9 |
| 20260505082049 | 12 | 175 | 8.0 | 12.9 | 0.00 | 0.00 | 0.00 | 63 | 1012.8 |
| 20260505081600 | 12 | 176 | 8.0 | 12.9 | 0.00 | 0.00 | 0.00 | 63 | 1012.8 |
| 20260505081048 | 11 | 179 | 8.0 | 11.3 | 0.00 | 0.00 | 0.00 | 63 | 1012.7 |
| 20260505080549 | 11 | 197 | 4.8 | 6.4 | 0.00 | 0.00 | 0.00 | 63 | 1012.5 |
| 20260505080054 | 11 | 205 | 3.2 | 4.8 | 0.00 | 0.00 | 0.00 | 63 | 1012.4 |
| 20260505075547 | 11 | 255 | 1.6 | 6.4 | 0.00 | 0.00 | 0.00 | 63 | 1012.5 |
| 20260505075049 | 12 | 0 | 3.2 | 6.4 | 0.00 | 0.00 | 0.00 | 62 | 1012.3 |
| 20260505074600 | 12 | 326 | 1.6 | 8.0 | 0.00 | 0.00 | 0.00 | 61 | 1012.3 |
| 20260505074047 | 12 | 210 | 3.2 | 12.9 | 0.00 | 0.00 | 0.00 | 60 | 1012.3 |
| 20260505073548 | 12 | 199 | 6.4 | 17.7 | 0.00 | 0.00 | 0.00 | 60 | 1012.2 |
| 20260505073104 | 12 | 188 | 9.7 | 19.3 | 0.00 | 0.00 | 0.00 | 60 | 1012.1 |
| 20260505072549 | 12 | 184 | 11.3 | 19.3 | 0.00 | 0.00 | 0.00 | 59 | 1012.2 |
| 20260505072048 | 12 | 200 | 11.3 | 20.9 | 0.00 | 0.00 | 0.00 | 60 | 1011.9 |
| 20260505071602 | 12 | 173 | 12.9 | 24.1 | 0.00 | 0.00 | 0.00 | 59 | 1011.8 |
| 20260505071049 | 12 | 162 | 11.3 | 24.1 | 0.00 | 0.00 | 0.00 | 59 | 1011.8 |
| 20260505070549 | 12 | 168 | 14.5 | 24.1 | 0.00 | 0.00 | 0.00 | 59 | 1011.7 |
| 20260505070055 | 12 | 186 | 14.5 | 25.7 | 0.00 | 0.00 | 0.00 | 59 | 1011.7 |
| 20260505065549 | 12 | 194 | 12.9 | 25.7 | 0.00 | 0.00 | 0.00 | 59 | 1011.8 |
| 20260505065048 | 12 | 181 | 12.9 | 22.5 | 0.00 | 0.00 | 0.00 | 59 | 1011.8 |
| 20260505064553 | 12 | 181 | 11.3 | 22.5 | 0.00 | 0.00 | 0.00 | 59 | 1011.8 |
| 20260505064047 | 12 | 199 | 11.3 | 19.3 | 0.00 | 0.00 | 0.00 | 59 | 1011.8 |
| 20260505063548 | 12 | 200 | 9.7 | 19.3 | 0.00 | 0.00 | 0.00 | 59 | 1011.9 |
| 20260505063055 | 12 | 196 | 9.7 | 19.3 | 0.00 | 0.00 | 0.00 | 59 | 1011.9 |
| 20260505062548 | 12 | 188 | 9.7 | 19.3 | 0.00 | 0.00 | 0.00 | 58 | 1011.8 |
| 20260505062048 | 13 | 207 | 11.3 | 19.3 | 0.00 | 0.00 | 0.00 | 58 | 1011.8 |
| 20260505061604 | 13 | 205 | 11.3 | 20.9 | 0.00 | 0.00 | 0.00 | 57 | 1011.8 |
| 20260505061047 | 13 | 178 | 11.3 | 22.5 | 0.00 | 0.00 | 0.00 | 57 | 1011.8 |
| 20260505060549 | 13 | 231 | 14.5 | 25.7 | 0.00 | 0.00 | 0.00 | 56 | 1011.8 |
| 20260505055549 | 13 | 185 | 16.1 | 27.4 | 0.00 | 0.00 | 0.00 | 55 | 1011.9 |
| 20260505055049 | 13 | 183 | 16.1 | 30.6 | 0.00 | 0.00 | 0.00 | 55 | 1011.8 |
| 20260505054629 | 13 | 209 | 16.1 | 30.6 | 0.00 | 0.00 | 0.00 | 55 | 1011.7 |
| 20260505054048 | 13 | 191 | 17.7 | 29.0 | 0.00 | 0.00 | 0.00 | 55 | 1011.7 |
| 20260505053550 | 13 | 181 | 16.1 | 32.2 | 0.00 | 0.00 | 0.00 | 55 | 1011.7 |
| 20260505053114 | 13 | 191 | 17.7 | 32.2 | 0.00 | 0.00 | 0.00 | 55 | 1011.7 |
| 20260505052551 | 13 | 176 | 16.1 | 35.4 | 0.00 | 0.00 | 0.00 | 55 | 1011.6 |
| 20260505052046 | 13 | 210 | 19.3 | 35.4 | 0.00 | 0.00 | 0.00 | 54 | 1011.7 |
| 20260505051601 | 13 | 186 | 17.7 | 29.0 | 0.00 | 0.00 | 0.00 | 54 | 1011.7 |
| 20260505051049 | 13 | 194 | 14.5 | 25.7 | 0.00 | 0.00 | 0.00 | 55 | 1011.8 |
| 20260505050548 | 13 | 211 | 16.1 | 25.7 | 0.00 | 0.00 | 0.00 | 55 | 1011.8 |
| 20260505041558 | 13 | 209 | 14.5 | 19.3 | 0.00 | 0.00 | 0.00 | 54 | 1011.9 |
| 20260505041049 | 13 | 166 | 12.9 | 20.9 | 0.00 | 0.00 | 0.00 | 54 | 1011.9 |
| 20260505040549 | 13 | 184 | 12.9 | 20.9 | 0.00 | 0.00 | 0.00 | 53 | 1012.0 |
| 20260505040058 | 14 | 181 | 12.9 | 20.9 | 0.00 | 0.00 | 0.00 | 53 | 1012.1 |
| 20260505035549 | 14 | 179 | 14.5 | 20.9 | 0.00 | 0.00 | 0.00 | 53 | 1012.1 |
| 20260505035048 | 14 | 195 | 9.7 | 17.7 | 0.00 | 0.00 | 0.00 | 53 | 1012.2 |
| 20260505034553 | 14 | 187 | 11.3 | 19.3 | 0.00 | 0.00 | 0.00 | 53 | 1012.2 |
| 20260505034049 | 14 | 184 | 12.9 | 19.3 | 0.00 | 0.00 | 0.00 | 53 | 1012.1 |
| 20260505033548 | 14 | 174 | 12.9 | 22.5 | 0.00 | 0.00 | 0.00 | 53 | 1012.2 |
| 20260505033053 | 14 | 182 | 12.9 | 22.5 | 0.00 | 0.00 | 0.00 | 53 | 1012.3 |
| 20260505032549 | 14 | 195 | 14.5 | 24.1 | 0.00 | 0.00 | 0.00 | 53 | 1012.3 |
| 20260505032048 | 14 | 186 | 14.5 | 24.1 | 0.00 | 0.00 | 0.00 | 53 | 1012.4 |
| 20260505031607 | 14 | 174 | 14.5 | 22.5 | 0.00 | 0.00 | 0.00 | 53 | 1012.4 |
| 20260505031049 | 14 | 167 | 14.5 | 22.5 | 0.00 | 0.00 | 0.00 | 53 | 1012.5 |
| 20260505030549 | 14 | 150 | 16.1 | 22.5 | 0.00 | 0.00 | 0.00 | 54 | 1012.4 |
| 20260505030058 | 14 | 171 | 14.5 | 22.5 | 0.00 | 0.00 | 0.00 | 54 | 1012.5 |
| 20260505025548 | 14 | 199 | 14.5 | 22.5 | 0.00 | 0.00 | 0.00 | 54 | 1012.7 |
| 20260505025050 | 15 | 185 | 14.5 | 22.5 | 0.00 | 0.00 | 0.00 | 54 | 1012.7 |
| 20260505024550 | 15 | 220 | 12.9 | 25.7 | 0.00 | 0.00 | 0.00 | 55 | 1012.6 |
| 20260505024048 | 15 | 162 | 14.5 | 25.7 | 0.00 | 0.00 | 0.00 | 55 | 1012.7 |
| 20260505023552 | 15 | 193 | 14.5 | 25.7 | 0.00 | 0.00 | 0.00 | 55 | 1012.6 |
| 20260505023106 | 15 | 175 | 12.9 | 22.5 | 0.00 | 0.00 | 0.00 | 55 | 1012.6 |
| 20260505022548 | 15 | 178 | 14.5 | 22.5 | 0.00 | 0.00 | 0.00 | 55 | 1012.7 |
| 20260505022048 | 15 | 183 | 11.3 | 19.3 | 0.00 | 0.00 | 0.00 | 55 | 1012.7 |
| 20260505021554 | 15 | 191 | 11.3 | 19.3 | 0.00 | 0.00 | 0.00 | 55 | 1012.7 |
| 20260505021048 | 15 | 185 | 11.3 | 22.5 | 0.00 | 0.00 | 0.00 | 55 | 1012.7 |
| 20260505020552 | 15 | 173 | 12.9 | 22.5 | 0.00 | 0.00 | 0.00 | 55 | 1012.7 |
| 20260505020054 | 15 | 163 | 12.9 | 22.5 | 0.00 | 0.00 | 0.00 | 55 | 1012.7 |
| 20260505015547 | 15 | 194 | 11.3 | 22.5 | 0.00 | 0.00 | 0.00 | 55 | 1012.7 |
| 20260505015049 | 15 | 190 | 12.9 | 22.5 | 0.00 | 0.00 | 0.00 | 55 | 1012.7 |
| 20260505014601 | 15 | 190 | 9.7 | 20.9 | 0.00 | 0.00 | 0.00 | 55 | 1012.6 |
| 20260505014048 | 15 | 189 | 11.3 | 19.3 | 0.00 | 0.00 | 0.00 | 55 | 1012.7 |
| 20260505013547 | 15 | 181 | 9.7 | 19.3 | 0.00 | 0.00 | 0.00 | 55 | 1012.7 |
| 20260505013105 | 15 | 186 | 11.3 | 19.3 | 0.00 | 0.00 | 0.00 | 55 | 1012.6 |
| 20260505012548 | 16 | 194 | 12.9 | 19.3 | 0.00 | 0.00 | 0.00 | 54 | 1012.7 |
| 20260505012047 | 16 | 188 | 11.3 | 19.3 | 0.00 | 0.00 | 0.00 | 55 | 1012.6 |
| 20260505011552 | 16 | 179 | 11.3 | 19.3 | 0.00 | 0.00 | 0.00 | 54 | 1012.6 |
| 20260505011048 | 16 | 168 | 11.3 | 20.9 | 0.00 | 0.00 | 0.00 | 54 | 1012.5 |
| 20260505010545 | 16 | 182 | 11.3 | 20.9 | 0.00 | 0.00 | 0.00 | 54 | 1012.5 |
| 20260505005548 | 16 | 157 | 11.3 | 20.9 | 0.00 | 0.00 | 0.00 | 53 | 1012.3 |
| 20260505005048 | 16 | 174 | 11.3 | 20.9 | 0.00 | 0.00 | 0.00 | 53 | 1012.1 |
| 20260505004558 | 16 | 191 | 11.3 | 20.9 | 0.00 | 0.00 | 0.00 | 53 | 1012.1 |
| 20260505004046 | 16 | 186 | 11.3 | 25.7 | 0.00 | 0.00 | 0.00 | 53 | 1012.0 |
| 20260505003548 | 16 | 186 | 11.3 | 27.4 | 0.00 | 0.00 | 0.00 | 52 | 1011.9 |
| 20260505003053 | 17 | 188 | 16.1 | 27.4 | 0.00 | 0.00 | 0.00 | 52 | 1011.8 |
| 20260505002547 | 17 | 170 | 12.9 | 22.5 | 0.00 | 0.00 | 0.00 | 52 | 1011.7 |
| 20260505002049 | 17 | 200 | 11.3 | 25.7 | 0.00 | 0.00 | 0.00 | 51 | 1011.7 |
| 20260505001554 | 17 | 164 | 14.5 | 27.4 | 0.00 | 0.00 | 0.00 | 51 | 1011.8 |
| 20260505001050 | 17 | 200 | 16.1 | 27.4 | 0.00 | 0.00 | 0.00 | 50 | 1011.8 |
| 20260505000548 | 17 | 181 | 12.9 | 25.7 | 0.00 | 0.00 | 0.00 | 50 | 1011.6 |
| 20260505000114 | 17 | 176 | 12.9 | 22.5 | 0.00 | 0.00 | 0.00 | 50 | 1011.7 |
| 20260504235548 | 17 | 179 | 12.9 | 25.7 | 0.00 | 0.00 | 0.00 | 50 | 1011.8 |
| 20260504235049 | 18 | 174 | 14.5 | 25.7 | 0.00 | 0.00 | 0.00 | 49 | 1011.6 |
| 20260504234555 | 18 | 161 | 9.7 | 22.5 | 0.00 | 0.00 | 0.00 | 49 | 1011.6 |
| 20260504234049 | 18 | 165 | 9.7 | 22.5 | 0.00 | 0.00 | 0.00 | 48 | 1011.6 |
| 20260504233551 | 18 | 136 | 11.3 | 22.5 | 0.00 | 0.00 | 0.00 | 48 | 1011.6 |
| 20260504233055 | 18 | 174 | 11.3 | 22.5 | 0.00 | 0.00 | 0.00 | 48 | 1011.6 |
| 20260504232550 | 18 | 172 | 12.9 | 24.1 | 0.00 | 0.00 | 0.00 | 46 | 1011.5 |
| 20260504232050 | 18 | 194 | 12.9 | 30.6 | 0.00 | 0.00 | 0.00 | 46 | 1011.5 |
| 20260504231552 | 18 | 155 | 14.5 | 30.6 | 0.00 | 0.00 | 0.00 | 47 | 1011.6 |
| 20260504231049 | 18 | 192 | 14.5 | 27.4 | 0.00 | 0.00 | 0.00 | 47 | 1011.3 |
| 20260504230551 | 19 | 178 | 14.5 | 27.4 | 0.00 | 0.00 | 0.00 | 46 | 1011.3 |
| 20260504230104 | 19 | 160 | 11.3 | 20.9 | 0.00 | 0.00 | 0.00 | 47 | 1011.4 |
| 20260504225551 | 19 | 210 | 11.3 | 20.9 | 0.00 | 0.00 | 0.00 | 46 | 1011.6 |
| 20260504225049 | 20 | 181 | 9.7 | 27.4 | 0.00 | 0.00 | 0.00 | 47 | 1011.4 |
| 20260504224552 | 20 | 212 | 9.7 | 27.4 | 0.00 | 0.00 | 0.00 | 46 | 1011.5 |
| 20260504224051 | 20 | 197 | 11.3 | 24.1 | 0.00 | 0.00 | 0.00 | 46 | 1011.4 |
| 20260504223550 | 20 | 190 | 14.5 | 24.1 | 0.00 | 0.00 | 0.00 | 45 | 1011.4 |
| 20260504223104 | 20 | 186 | 11.3 | 24.1 | 0.00 | 0.00 | 0.00 | 46 | 1011.4 |
| 20260504222549 | 20 | 191 | 12.9 | 24.1 | 0.00 | 0.00 | 0.00 | 44 | 1011.5 |
| 20260504222050 | 20 | 224 | 11.3 | 24.1 | 0.00 | 0.00 | 0.00 | 45 | 1011.5 |
| 20260504221600 | 20 | 220 | 8.0 | 20.9 | 0.00 | 0.00 | 0.00 | 45 | 1011.6 |
| 20260504221049 | 20 | 254 | 9.7 | 25.7 | 0.00 | 0.00 | 0.00 | 45 | 1011.5 |
| 20260504220551 | 20 | 216 | 11.3 | 27.4 | 0.00 | 0.00 | 0.00 | 45 | 1011.7 |
| 20260504220059 | 20 | 281 | 12.9 | 27.4 | 0.00 | 0.00 | 0.00 | 46 | 1011.7 |
| 20260504215553 | 20 | 213 | 14.5 | 29.0 | 0.00 | 0.00 | 0.00 | 44 | 1011.6 |
| 20260504215054 | 20 | 223 | 12.9 | 29.0 | 0.00 | 0.00 | 0.00 | 46 | 1011.7 |
| 20260504214556 | 20 | 226 | 16.1 | 29.0 | 0.00 | 0.00 | 0.00 | 44 | 1011.7 |
| 20260504214050 | 20 | 219 | 16.1 | 29.0 | 0.00 | 0.00 | 0.00 | 44 | 1011.8 |
| 20260504213550 | 20 | 239 | 16.1 | 29.0 | 0.00 | 0.00 | 0.00 | 44 | 1011.8 |
| 20260504213053 | 20 | 219 | 16.1 | 29.0 | 0.00 | 0.00 | 0.00 | 44 | 1011.8 |
| 20260504212550 | 21 | 222 | 14.5 | 25.7 | 0.00 | 0.00 | 0.00 | 45 | 1012.0 |
| 20260504212053 | 21 | 223 | 8.0 | 27.4 | 0.00 | 0.00 | 0.00 | 46 | 1011.9 |
| 20260504211558 | 21 | 205 | 12.9 | 27.4 | 0.00 | 0.00 | 0.00 | 48 | 1011.9 |
| 20260504211051 | 21 | 231 | 9.7 | 30.6 | 0.00 | 0.00 | 0.00 | 44 | 1011.9 |
| 20260504210550 | 21 | 224 | 9.7 | 32.2 | 0.00 | 0.00 | 0.00 | 50 | 1011.8 |
| 20260504210055 | 20 | 212 | 17.7 | 32.2 | 0.00 | 0.00 | 0.00 | 47 | 1011.7 |
| 20260504205550 | 20 | 238 | 12.9 | 29.0 | 0.00 | 0.00 | 0.00 | 48 | 1011.7 |
| 20260504205051 | 19 | 228 | 11.3 | 29.0 | 0.00 | 0.00 | 0.00 | 50 | 1011.7 |
| 20260504204555 | 20 | 224 | 14.5 | 29.0 | 0.00 | 0.00 | 0.00 | 47 | 1011.8 |
| 20260504204050 | 20 | 279 | 16.1 | 25.7 | 0.00 | 0.00 | 0.00 | 46 | 1011.5 |
| 20260504203551 | 20 | 236 | 11.3 | 20.9 | 0.00 | 0.00 | 0.00 | 49 | 1011.5 |
| 20260504203103 | 20 | 244 | 12.9 | 20.9 | 0.00 | 0.00 | 0.00 | 48 | 1011.7 |
| 20260504202548 | 20 | 269 | 11.3 | 19.3 | 0.00 | 0.00 | 0.00 | 50 | 1011.7 |
| 20260504202049 | 20 | 241 | 8.0 | 22.5 | 0.00 | 0.00 | 0.00 | 50 | 1011.8 |
| 20260504201556 | 19 | 214 | 16.1 | 22.5 | 0.00 | 0.00 | 0.00 | 51 | 1012.0 |
| 20260504201050 | 20 | 179 | 11.3 | 30.6 | 0.00 | 0.00 | 0.00 | 56 | 1011.8 |
| 20260504200548 | 19 | 222 | 17.7 | 30.6 | 0.00 | 0.00 | 0.00 | 51 | 1011.9 |
| 20260504200053 | 19 | 212 | 12.9 | 27.4 | 0.00 | 0.00 | 0.00 | 54 | 1012.1 |
| 20260504195548 | 19 | 236 | 12.9 | 27.4 | 0.00 | 0.00 | 0.00 | 51 | 1012.0 |
| 20260504195048 | 18 | 234 | 16.1 | 25.7 | 0.00 | 0.00 | 0.00 | 53 | 1012.2 |
| 20260504194552 | 18 | 234 | 14.5 | 25.7 | 0.00 | 0.00 | 0.00 | 52 | 1012.1 |
| 20260504194048 | 18 | 252 | 8.0 | 24.1 | 0.00 | 0.00 | 0.00 | 54 | 1012.2 |
| 20260504193548 | 19 | 203 | 16.1 | 24.1 | 0.00 | 0.00 | 0.00 | 52 | 1012.3 |
| 20260504193051 | 20 | 217 | 6.4 | 17.7 | 0.00 | 0.00 | 0.00 | 54 | 1012.4 |
| 20260504192548 | 19 | 203 | 9.7 | 22.5 | 0.00 | 0.00 | 0.00 | 55 | 1012.5 |
| 20260504192050 | 18 | 221 | 11.3 | 24.1 | 0.00 | 0.00 | 0.00 | 54 | 1012.4 |
| 20260504191604 | 18 | 201 | 12.9 | 24.1 | 0.00 | 0.00 | 0.00 | 56 | 1012.5 |
| 20260504191048 | 18 | 223 | 12.9 | 24.1 | 0.00 | 0.00 | 0.00 | 55 | 1012.4 |
| 20260504190549 | 18 | 208 | 9.7 | 17.7 | 0.00 | 0.00 | 0.00 | 55 | 1012.8 |
| 20260504190107 | 18 | 193 | 9.7 | 17.7 | 0.00 | 0.00 | 0.00 | 55 | 1012.7 |
| 20260504185547 | 18 | 252 | 8.0 | 17.7 | 0.00 | 0.00 | 0.00 | 54 | 1012.7 |
| 20260504185048 | 18 | 293 | 3.2 | 17.7 | 0.00 | 0.00 | 0.00 | 55 | 1012.7 |
| 20260504184552 | 18 | 238 | 9.7 | 17.7 | 0.00 | 0.00 | 0.00 | 53 | 1012.9 |
| 20260504184048 | 18 | 324 | 8.0 | 17.7 | 0.00 | 0.00 | 0.00 | 53 | 1013.1 |
| 20260504183547 | 18 | 223 | 6.4 | 17.7 | 0.00 | 0.00 | 0.00 | 54 | 1013.3 |
| 20260504183051 | 18 | 326 | 8.0 | 17.7 | 0.00 | 0.00 | 0.00 | 56 | 1013.5 |
| 20260504182548 | 17 | 314 | 8.0 | 17.7 | 0.00 | 0.00 | 0.00 | 55 | 1013.4 |
| 20260504182050 | 17 | 332 | 9.7 | 17.7 | 0.00 | 0.00 | 0.00 | 54 | 1013.5 |
| 20260504181557 | 17 | 306 | 9.7 | 19.3 | 0.00 | 0.00 | 0.00 | 57 | 1013.4 |
| 20260504181048 | 17 | 308 | 9.7 | 24.1 | 0.00 | 0.00 | 0.00 | 55 | 1013.5 |
| 20260504180548 | 17 | 253 | 8.0 | 24.1 | 0.00 | 0.00 | 0.00 | 56 | 1013.4 |
| 20260504180107 | 17 | 278 | 9.7 | 33.8 | 0.00 | 0.00 | 0.00 | 54 | 1013.6 |
| 20260504175552 | 17 | 226 | 12.9 | 33.8 | 0.00 | 0.00 | 0.00 | 55 | 1013.5 |
| 20260504175050 | 17 | 251 | 16.1 | 29.0 | 0.00 | 0.00 | 0.00 | 55 | 1013.5 |
| 20260504174552 | 17 | 283 | 12.9 | 29.0 | 0.00 | 0.00 | 0.00 | 55 | 1013.5 |
| 20260504174048 | 17 | 314 | 12.9 | 29.0 | 0.00 | 0.00 | 0.00 | 54 | 1013.5 |
| 20260504173547 | 17 | 345 | 12.9 | 33.8 | 0.00 | 0.00 | 0.00 | 54 | 1013.7 |
| 20260504173052 | 17 | 293 | 16.1 | 33.8 | 0.00 | 0.00 | 0.00 | 52 | 1013.6 |
| 20260504172547 | 17 | 319 | 14.5 | 33.8 | 0.00 | 0.00 | 0.00 | 52 | 1013.4 |
| 20260504172048 | 17 | 288 | 11.3 | 29.0 | 0.00 | 0.00 | 0.00 | 54 | 1013.6 |
| 20260504171553 | 17 | 268 | 12.9 | 32.2 | 0.00 | 0.00 | 0.00 | 52 | 1013.5 |
| 20260504171048 | 17 | 250 | 14.5 | 32.2 | 0.00 | 0.00 | 0.00 | 54 | 1013.6 |
| 20260504170547 | 17 | 251 | 17.7 | 29.0 | 0.00 | 0.00 | 0.00 | 54 | 1013.4 |
| 20260504151048 | 13 | 253 | 9.7 | 25.7 | 0.00 | 0.00 | 0.00 | 61 | 1014.7 |
| 20260504150548 | 13 | 345 | 14.5 | 32.2 | 0.00 | 0.00 | 0.00 | 60 | 1014.7 |
| 20260504141049 | 12 | 219 | 8.0 | 17.7 | 0.00 | 0.00 | 0.00 | 61 | 1015.3 |
| 20260504140549 | 11 | 314 | 4.8 | 9.7 | 0.00 | 0.00 | 0.00 | 62 | 1015.2 |